• In Hungary
  • List of Countries
  • For 7 days
  • Water Temperature
  • Satellite Maps
  • Weather Map
  • News
  • Weather Widgets
  • user-avatar
    Login

    Hourly Weather Akkol'

    Today, 16 November, Friday

    Time Temperature Precipitation Wind Pressure Humidity
    00:00 -12°C° 0 mm 4 mps 743 mmHg 80%
    01:00 -14°C° 0 mm 4 mps 743 mmHg 80%
    02:00 -14°C° 0 mm 4 mps 743 mmHg 80%
    03:00 -13°C° 0 mm 3 mps 743 mmHg 80%
    04:00 -13°C° 0 mm 3 mps 743 mmHg 80%
    05:00 -13°C° 0 mm 3 mps 744 mmHg 80%
    06:00 -13°C° 0 mm 3 mps 744 mmHg 80%
    07:00 -13°C° 0 mm 3 mps 744 mmHg 80%
    08:00 -13°C° 0 mm 3 mps 744 mmHg 80%
    09:00 -12°C° 0 mm 3 mps 744 mmHg 78%
    10:00 -9°C° 0 mm 2 mps 744 mmHg 75%
    11:00 -8°C° 0 mm 2 mps 745 mmHg 73%
    12:00 -8°C° 0 mm 2 mps 744 mmHg 73%
    13:00 -7°C° 0 mm 2 mps 744 mmHg 74%
    14:00 -7°C° 0 mm 2 mps 744 mmHg 74%
    15:00 -8°C° 0 mm 2 mps 744 mmHg 78%
    16:00 -9°C° 0 mm 2 mps 743 mmHg 81%
    17:00 -9°C° 0 mm 2 mps 743 mmHg 84%
    18:00 -10°C° 0 mm 3 mps 743 mmHg 83%
    19:00 -10°C° 0 mm 3 mps 743 mmHg 83%
    20:00 -10°C° 0 mm 3 mps 742 mmHg 82%
    21:00 -10°C° 0 mm 3 mps 742 mmHg 82%
    22:00 -10°C° 0 mm 3 mps 741 mmHg 82%
    23:00 -11°C° 0 mm 4 mps 741 mmHg 82%

    Tomorrow, 17 November, Saturday

    Time Temperature Precipitation Wind Pressure Humidity
    00:00 -11°C° 0 mm 4 mps 740 mmHg 82%
    01:00 -11°C° 0 mm 4 mps 740 mmHg 82%
    02:00 -11°C° 0 mm 4 mps 739 mmHg 82%
    03:00 -11°C° 0 mm 4 mps 739 mmHg 82%
    04:00 -12°C° 0 mm 4 mps 738 mmHg 83%
    05:00 -12°C° 0 mm 4 mps 738 mmHg 83%
    06:00 -12°C° 0 mm 4 mps 737 mmHg 83%
    07:00 -13°C° 0 mm 5 mps 736 mmHg 83%
    08:00 -13°C° 0 mm 5 mps 736 mmHg 83%
    09:00 -13°C° 0 mm 5 mps 735 mmHg 82%
    10:00 -12°C° 0 mm 5 mps 735 mmHg 81%
    11:00 -11°C° 0 mm 6 mps 734 mmHg 80%
    12:00 -11°C° 0.1 mm 6 mps 733 mmHg 82%
    13:00 -11°C° 0.1 mm 6 mps 733 mmHg 83%
    14:00 -10°C° 0.1 mm 6 mps 732 mmHg 84%
    15:00 -10°C° 0.1 mm 6 mps 731 mmHg 86%
    16:00 -11°C° 0.1 mm 6 mps 731 mmHg 87%
    17:00 -11°C° 0.1 mm 6 mps 730 mmHg 88%
    18:00 -11°C° 0.2 mm 6 mps 730 mmHg 89%
    19:00 -11°C° 0.2 mm 5 mps 730 mmHg 90%
    20:00 -11°C° 0.2 mm 5 mps 729 mmHg 91%
    21:00 -11°C° 0.2 mm 5 mps 729 mmHg 92%
    22:00 -11°C° 0.2 mm 5 mps 729 mmHg 92%
    23:00 -10°C° 0.2 mm 4 mps 728 mmHg 93%

    Day after tomorrow, 18 November, Sunday

    Time Temperature Precipitation Wind Pressure Humidity
    00:00 -10°C° 0.1 mm 4 mps 728 mmHg 94%
    01:00 -10°C° 0.1 mm 4 mps 728 mmHg 94%
    02:00 -9°C° 0.1 mm 3 mps 728 mmHg 95%
    03:00 -9°C° 0 mm 3 mps 729 mmHg 95%
    04:00 -9°C° 0 mm 3 mps 729 mmHg 95%
    05:00 -9°C° 0 mm 3 mps 729 mmHg 95%
    06:00 -8°C° 0 mm 3 mps 729 mmHg 95%
    07:00 -8°C° 0 mm 3 mps 730 mmHg 95%
    08:00 -8°C° 0 mm 3 mps 730 mmHg 95%
    09:00 -7°C° 0 mm 3 mps 731 mmHg 93%
    10:00 -7°C° 0 mm 3 mps 731 mmHg 92%
    11:00 -6°C° 0 mm 3 mps 732 mmHg 91%
    12:00 -6°C° 0 mm 3 mps 732 mmHg 90%
    13:00 -6°C° 0 mm 3 mps 732 mmHg 89%
    14:00 -5°C° 0 mm 3 mps 733 mmHg 88%
    15:00 -5°C° 0 mm 2 mps 733 mmHg 90%
    16:00 -5°C° 0 mm 2 mps 734 mmHg 92%
    17:00 -6°C° 0 mm 2 mps 734 mmHg 94%
    18:00 -6°C° 0 mm 2 mps 735 mmHg 94%
    19:00 -6°C° 0 mm 2 mps 735 mmHg 95%
    20:00 -6°C° 0 mm 2 mps 735 mmHg 95%
    21:00 -4°C° 0 mm 1 mps 736 mmHg 95%
    22:00 -4°C° 0 mm 1 mps 736 mmHg 95%
    23:00 -6°C° 0 mm 1 mps 736 mmHg 96%

    19 November, Monday

    Time Temperature Precipitation Wind Pressure Humidity
    00:00 -7°C° 0 mm 2 mps 736 mmHg 96%
    01:00 -7°C° 0 mm 2 mps 737 mmHg 96%
    02:00 -7°C° 0 mm 2 mps 737 mmHg 95%
    03:00 -7°C° 0 mm 2 mps 737 mmHg 95%
    04:00 -8°C° 0 mm 3 mps 737 mmHg 95%
    05:00 -8°C° 0 mm 3 mps 737 mmHg 94%
    06:00 -8°C° 0 mm 3 mps 738 mmHg 94%
    07:00 -9°C° 0 mm 3 mps 738 mmHg 93%
    08:00 -9°C° 0 mm 3 mps 738 mmHg 92%
    09:00 -9°C° 0 mm 4 mps 738 mmHg 90%
    10:00 -9°C° 0 mm 4 mps 738 mmHg 89%
    11:00 -8°C° 0 mm 5 mps 738 mmHg 87%
    12:00 -8°C° 0 mm 5 mps 738 mmHg 87%
    13:00 -8°C° 0 mm 5 mps 737 mmHg 87%
    14:00 -8°C° 0 mm 5 mps 737 mmHg 87%
    15:00 -8°C° 0 mm 5 mps 737 mmHg 89%
    16:00 -10°C° 0 mm 5 mps 737 mmHg 91%
    17:00 -10°C° 0 mm 4 mps 736 mmHg 93%
    18:00 -10°C° 0 mm 4 mps 736 mmHg 93%
    19:00 -10°C° 0 mm 4 mps 736 mmHg 93%
    20:00 -11°C° 0 mm 5 mps 736 mmHg 93%
    21:00 -10°C° 0 mm 4 mps 735 mmHg 93%
    22:00 -10°C° 0 mm 4 mps 735 mmHg 93%
    23:00 -10°C° 0 mm 4 mps 734 mmHg 93%

    20 November, Tuesday

    Time Temperature Precipitation Wind Pressure Humidity
    00:00 -10°C° 0 mm 4 mps 734 mmHg 93%
    01:00 -10°C° 0 mm 4 mps 734 mmHg 93%
    02:00 -10°C° 0 mm 4 mps 734 mmHg 93%
    03:00 -9°C° 0 mm 4 mps 734 mmHg 93%
    04:00 -9°C° 0 mm 4 mps 733 mmHg 94%
    05:00 -8°C° 0 mm 3 mps 733 mmHg 94%
    06:00 -8°C° 0 mm 3 mps 733 mmHg 95%
    07:00 -8°C° 0 mm 3 mps 733 mmHg 95%
    08:00 -8°C° 0 mm 3 mps 733 mmHg 96%
    09:00 -7°C° 0 mm 2 mps 733 mmHg 95%
    10:00 -6°C° 0 mm 2 mps 733 mmHg 94%
    11:00 -5°C° 0 mm 2 mps 733 mmHg 93%
    12:00 -5°C° 0 mm 2 mps 733 mmHg 93%
    13:00 -5°C° 0 mm 2 mps 733 mmHg 92%
    14:00 -4°C° 0 mm 2 mps 732 mmHg 92%
    15:00 -5°C° 0 mm 2 mps 733 mmHg 93%
    16:00 -5°C° 0 mm 2 mps 733 mmHg 94%
    17:00 -5°C° 0 mm 2 mps 733 mmHg 95%
    18:00 -5°C° 0 mm 2 mps 733 mmHg 95%
    19:00 -3°C° 0 mm 1 mps 733 mmHg 96%
    20:00 -4°C° 0 mm 1 mps 733 mmHg 96%
    21:00 -4°C° 0 mm 1 mps 733 mmHg 96%
    22:00 -4°C° 0 mm 1 mps 733 mmHg 96%
    23:00 -4°C° 0 mm 1 mps 733 mmHg 96%

    21 November, Wednesday

    Time Temperature Precipitation Wind Pressure Humidity
    00:00 -4°C° 0 mm 1 mps 733 mmHg 96%
    01:00 -4°C° 0 mm 1 mps 733 mmHg 95%
    02:00 -4°C° 0 mm 1 mps 733 mmHg 95%
    03:00 -4°C° 0 mm 1 mps 733 mmHg 96%
    04:00 -6°C° 0 mm 2 mps 733 mmHg 96%
    05:00 -6°C° 0 mm 2 mps 733 mmHg 96%
    06:00 -7°C° 0 mm 2 mps 733 mmHg 96%
    07:00 -8°C° 0 mm 3 mps 733 mmHg 96%
    08:00 -8°C° 0 mm 3 mps 733 mmHg 96%
    09:00 -7°C° 0 mm 3 mps 733 mmHg 93%
    10:00 -8°C° 0 mm 4 mps 733 mmHg 91%
    11:00 -7°C° 0 mm 4 mps 733 mmHg 88%
    12:00 -7°C° 0 mm 5 mps 732 mmHg 88%
    13:00 -7°C° 0 mm 5 mps 732 mmHg 87%
    14:00 -7°C° 0 mm 5 mps 732 mmHg 86%
    15:00 -7°C° 0 mm 5 mps 732 mmHg 88%
    16:00 -8°C° 0 mm 5 mps 731 mmHg 89%
    17:00 -8°C° 0 mm 5 mps 731 mmHg 90%
    18:00 -8°C° 0 mm 5 mps 731 mmHg 91%
    19:00 -8°C° 0 mm 5 mps 731 mmHg 92%
    20:00 -10°C° 0 mm 5 mps 731 mmHg 92%
    21:00 -10°C° 0 mm 5 mps 730 mmHg 92%
    22:00 -10°C° 0 mm 5 mps 730 mmHg 93%
    23:00 -8°C° 0 mm 5 mps 730 mmHg 93%
    Show more